カタログに戻る

STARLINK-32592

運用中通信VLEO
NORAD 62035·PAYLOAD·🇺🇸 United States

打ち上げ Nov 21, 2024 から Cape Canaveral Space Force Station

Loading…

次のパス (今後24時間)

TLE

最新Source: CelesTrak SupGP

元期: Sep 14, 2026, 21:10 UTC

1 62035C 24216D   26257.88243056  .00016538  00000+0  59906-3 0  2570
2 62035  43.0000 275.2108 0001496 265.7775 152.7086 15.27566389    11

AllMySatでSTARLINK-32592をリアルタイム追跡

Download on the App Store